Time,TemperatureF,DewpointF,PressureIn,WindDirection,WindDirectionDegrees,WindSpeedMPH,WindSpeedGustMPH,Humidity,HourlyPrecipIn,Conditions,Clouds,dailyrainin,SoftwareType,DateUTC
2016-02-10 00:00:00,51.8,43.7,29.79,SW,225,20.1,30.4,74,0.00,,,0.03,,2016-02-09 23:00:00,
2016-02-10 00:05:00,52.2,43.3,29.79,South,180,25.5,25.5,72,0.02,,,0.05,,2016-02-09 23:05:00,
2016-02-10 00:10:00,52.3,43.2,29.79,SW,225,22.3,35.7,71,0.00,,,0.00,,2016-02-09 23:10:00,
2016-02-10 00:15:00,52.3,42.8,29.76,SW,225,28.1,33.1,70,0.00,,,0.00,,2016-02-09 23:15:00,
2016-02-10 00:25:00,52.3,42.4,29.76,SW,225,20.1,28.1,69,0.00,,,0.00,,2016-02-09 23:25:00,
2016-02-10 00:30:00,52.3,42.8,29.76,South,180,17.4,24.1,70,0.00,,,0.00,,2016-02-09 23:30:00,
2016-02-10 00:35:00,52.2,43.0,29.73,SW,225,18.7,25.0,71,0.00,,,0.00,,2016-02-09 23:35:00,
2016-02-10 00:40:00,52.2,43.3,29.73,WSW,247,21.9,22.3,72,0.00,,,0.00,,2016-02-09 23:40:00,
2016-02-10 00:50:00,52.3,43.5,29.73,WSW,247,20.5,24.1,72,0.00,,,0.00,,2016-02-09 23:50:00,
2016-02-10 00:55:00,52.2,43.7,29.73,SW,225,22.8,24.1,73,0.00,,,0.00,,2016-02-09 23:55:00,
2016-02-10 01:01:00,52.0,43.5,29.73,SSW,202,16.5,20.5,73,0.00,,,0.00,,2016-02-10 00:01:00,
2016-02-10 01:10:00,52.2,43.7,29.73,South,180,17.8,17.8,73,0.00,,,0.00,,2016-02-10 00:10:00,
2016-02-10 01:15:00,52.2,43.7,29.73,SSW,202,16.1,16.1,73,0.00,,,0.00,,2016-02-10 00:15:00,
2016-02-10 01:20:00,52.0,43.5,29.73,South,180,13.4,17.4,73,0.00,,,0.00,,2016-02-10 00:20:00,
2016-02-10 01:25:00,52.2,43.7,29.73,SW,225,17.4,17.8,73,0.00,,,0.00,,2016-02-10 00:25:00,
2016-02-10 01:30:00,52.2,43.7,29.73,SSW,202,14.3,17.8,73,0.00,,,0.00,,2016-02-10 00:30:00,
2016-02-10 01:35:00,52.0,44.2,29.70,South,180,18.7,29.9,75,0.00,,,0.00,,2016-02-10 00:35:00,
2016-02-10 01:40:00,51.6,44.2,29.70,SW,225,19.2,25.5,76,0.00,,,0.00,,2016-02-10 00:40:00,
2016-02-10 01:45:00,51.6,44.2,29.70,WSW,247,19.2,19.2,76,0.00,,,0.00,,2016-02-10 00:45:00,
2016-02-10 01:50:00,51.6,44.6,29.70,SSW,202,19.2,28.1,77,0.00,,,0.00,,2016-02-10 00:50:00,
2016-02-10 01:55:00,51.6,45.0,29.70,SSW,202,17.4,24.6,78,0.00,,,0.00,,2016-02-10 00:55:00,
2016-02-10 02:00:00,51.4,44.8,29.70,South,180,21.0,25.5,78,0.00,,,0.00,,2016-02-10 01:00:00,
2016-02-10 02:05:00,51.4,45.1,29.67,SW,225,20.1,22.8,79,0.00,,,0.00,,2016-02-10 01:05:00,
2016-02-10 02:10:00,51.6,45.0,29.67,West,270,21.4,25.0,78,0.00,,,0.00,,2016-02-10 01:10:00,
2016-02-10 02:15:00,51.4,45.1,29.67,WSW,247,18.7,24.6,79,0.00,,,0.00,,2016-02-10 01:15:00,
2016-02-10 02:25:00,51.3,45.5,29.67,South,180,20.1,32.2,81,0.00,,,0.00,,2016-02-10 01:25:00,
2016-02-10 02:30:00,51.1,45.7,29.67,South,180,17.8,18.3,82,0.04,,,0.04,,2016-02-10 01:30:00,
2016-02-10 02:35:00,51.3,45.9,29.67,SW,225,14.7,20.1,82,0.07,,,0.07,,2016-02-10 01:35:00,
2016-02-10 02:40:00,51.3,46.2,29.67,SW,225,16.5,22.3,83,0.09,,,0.09,,2016-02-10 01:40:00,
2016-02-10 02:45:00,51.3,45.9,29.67,SW,225,24.6,32.2,82,0.09,,,0.09,,2016-02-10 01:45:00,
2016-02-10 02:50:00,51.4,45.7,29.67,SW,225,19.2,19.2,81,0.15,,,0.15,,2016-02-10 01:50:00,
2016-02-10 02:55:00,51.6,45.9,29.67,SSW,202,23.2,29.5,81,0.18,,,0.18,,2016-02-10 01:55:00,
2016-02-10 03:00:00,51.6,45.5,29.67,SSW,202,22.8,23.7,80,0.20,,,0.20,,2016-02-10 02:00:00,
2016-02-10 03:05:00,51.4,45.7,29.64,South,180,20.1,23.7,81,0.20,,,0.20,,2016-02-10 02:05:00,
2016-02-10 03:10:00,51.4,45.7,29.64,SW,225,20.5,20.5,81,0.00,,,0.20,,2016-02-10 02:10:00,
2016-02-10 03:15:00,51.4,45.7,29.64,South,180,18.7,26.3,81,0.02,,,0.22,,2016-02-10 02:15:00,
2016-02-10 03:20:00,51.4,45.7,29.64,SSW,202,25.0,39.3,81,0.02,,,0.22,,2016-02-10 02:20:00,
2016-02-10 03:25:00,51.6,46.2,29.64,South,180,17.8,25.9,82,0.04,,,0.24,,2016-02-10 02:25:00,
2016-02-10 03:30:00,51.6,46.2,29.64,South,180,18.7,18.7,82,0.04,,,0.24,,2016-02-10 02:30:00,
2016-02-10 03:35:00,51.8,46.0,29.61,South,180,21.4,23.2,81,0.07,,,0.27,,2016-02-10 02:35:00,
2016-02-10 03:40:00,51.8,46.4,29.61,SW,225,22.8,29.0,82,0.07,,,0.27,,2016-02-10 02:40:00,
2016-02-10 03:45:00,52.0,46.6,29.61,South,180,22.8,29.5,82,0.07,,,0.27,,2016-02-10 02:45:00,
2016-02-10 03:50:00,52.2,46.4,29.61,South,180,20.1,22.3,81,0.07,,,0.27,,2016-02-10 02:50:00,
2016-02-10 04:00:00,51.8,46.4,29.61,South,180,15.6,18.7,82,0.07,,,0.27,,2016-02-10 03:00:00,
2016-02-10 04:05:00,51.8,46.8,29.61,South,180,19.2,27.2,83,0.07,,,0.27,,2016-02-10 03:05:00,
2016-02-10 04:15:00,51.8,46.4,29.58,SSW,202,16.5,22.8,82,0.00,,,0.27,,2016-02-10 03:15:00,
2016-02-10 04:20:00,51.8,46.4,29.58,SW,225,16.5,29.9,82,0.00,,,0.27,,2016-02-10 03:20:00,
2016-02-10 04:25:00,52.0,46.6,29.61,SW,225,21.9,24.1,82,0.00,,,0.27,,2016-02-10 03:25:00,
2016-02-10 04:35:00,52.2,46.4,29.58,SW,225,17.0,31.3,81,0.00,,,0.27,,2016-02-10 03:35:00,
2016-02-10 04:40:00,52.2,46.4,29.58,SSW,202,19.2,23.2,81,0.00,,,0.27,,2016-02-10 03:40:00,
2016-02-10 04:45:00,52.2,46.4,29.58,South,180,17.8,20.1,81,0.00,,,0.27,,2016-02-10 03:45:00,
2016-02-10 04:50:00,52.2,46.4,29.58,South,180,20.5,20.5,81,0.00,,,0.27,,2016-02-10 03:50:00,
2016-02-10 05:00:00,52.2,46.4,29.58,SW,225,19.2,20.1,81,0.00,,,0.27,,2016-02-10 04:00:00,
2016-02-10 05:05:00,52.2,46.4,29.61,SW,225,17.0,21.4,81,0.00,,,0.27,,2016-02-10 04:05:00,
2016-02-10 05:10:00,52.3,46.6,29.61,South,180,17.8,26.3,81,0.00,,,0.27,,2016-02-10 04:10:00,
2016-02-10 05:15:00,52.5,46.8,29.58,South,180,17.8,20.5,81,0.00,,,0.27,,2016-02-10 04:15:00,
2016-02-10 05:20:00,52.3,46.9,29.58,South,180,17.4,23.2,82,-99.99,,,0.27,,2016-02-10 04:20:00,
2016-02-10 05:25:00,52.5,47.1,29.61,South,180,22.3,30.4,82,-99.99,,,0.27,,2016-02-10 04:25:00,
2016-02-10 05:30:00,52.5,47.1,29.61,SSW,202,23.7,27.2,82,-99.99,,,0.27,,2016-02-10 04:30:00,
2016-02-10 05:35:00,52.5,47.1,29.61,South,180,21.4,29.5,82,-99.99,,,0.27,,2016-02-10 04:35:00,
2016-02-10 05:40:00,52.7,47.7,29.58,South,180,25.0,25.0,83,-99.99,,,0.27,,2016-02-10 04:40:00,
2016-02-10 05:45:00,52.7,47.3,29.58,South,180,26.8,38.4,82,-99.99,,,0.27,,2016-02-10 04:45:00,
2016-02-10 05:55:00,52.9,47.1,29.61,SW,225,20.5,31.3,81,-99.99,,,0.27,,2016-02-10 04:55:00,
2016-02-10 06:00:00,53.1,46.9,29.61,WSW,247,26.3,37.1,80,-99.99,,,0.27,,2016-02-10 05:00:00,
2016-02-10 06:06:00,53.4,46.9,29.58,SSW,202,21.0,32.2,79,-99.99,,,0.27,,2016-02-10 05:06:00,
2016-02-10 06:11:00,53.6,47.1,29.58,South,180,26.3,26.3,79,-99.99,,,0.27,,2016-02-10 05:11:00,
2016-02-10 06:16:00,53.8,46.9,29.58,SW,225,26.3,26.3,78,-99.99,,,0.27,,2016-02-10 05:16:00,
2016-02-10 06:21:00,53.8,46.9,29.58,SW,225,21.4,21.9,78,-99.99,,,0.27,,2016-02-10 05:21:00,
2016-02-10 06:26:00,53.4,46.6,29.58,SW,225,20.1,35.7,78,-99.99,,,0.27,,2016-02-10 05:26:00,
2016-02-10 06:31:00,53.4,46.9,29.58,West,270,21.9,30.4,79,-99.99,,,0.27,,2016-02-10 05:31:00,
2016-02-10 06:36:00,53.2,47.1,29.58,SSW,202,26.3,26.8,80,-99.99,,,0.27,,2016-02-10 05:36:00,
2016-02-10 06:41:00,53.2,47.8,29.58,SW,225,22.8,22.8,82,-99.99,,,0.27,,2016-02-10 05:41:00,
2016-02-10 06:46:00,53.1,47.7,29.58,South,180,20.1,20.1,82,-99.99,,,0.27,,2016-02-10 05:46:00,
2016-02-10 06:56:00,53.2,47.1,29.55,West,270,25.9,25.9,80,-99.99,,,0.27,,2016-02-10 05:56:00,
2016-02-10 07:01:00,53.2,47.1,29.55,SW,225,25.0,33.5,80,-99.99,,,0.27,,2016-02-10 06:01:00,
2016-02-10 07:06:00,53.1,47.3,29.55,South,180,22.3,30.4,81,-99.99,,,0.27,,2016-02-10 06:06:00,
2016-02-10 07:16:00,52.5,46.8,29.58,SW,225,21.9,27.2,81,0.00,,,0.27,,2016-02-10 06:16:00,
2016-02-10 07:21:00,52.5,46.4,29.58,South,180,18.3,30.4,80,0.00,,,0.27,,2016-02-10 06:21:00,
2016-02-10 07:26:00,52.3,45.9,29.58,SW,225,18.7,25.5,79,0.00,,,0.27,,2016-02-10 06:26:00,
2016-02-10 07:31:00,52.3,45.9,29.58,SW,225,19.2,31.7,79,0.00,,,0.27,,2016-02-10 06:31:00,
2016-02-10 07:36:00,52.2,45.7,29.58,SW,225,14.3,17.8,79,0.00,,,0.27,,2016-02-10 06:36:00,
2016-02-10 07:41:00,52.0,46.2,29.58,SW,225,17.8,18.7,81,0.00,,,0.27,,2016-02-10 06:41:00,
2016-02-10 07:46:00,51.8,46.0,29.58,West,270,21.0,21.0,81,0.00,,,0.27,,2016-02-10 06:46:00,
2016-02-10 07:51:00,51.8,45.7,29.58,West,270,17.8,21.4,80,0.00,,,0.27,,2016-02-10 06:51:00,
2016-02-10 07:56:00,52.0,45.3,29.58,SW,225,17.0,25.0,78,0.00,,,0.27,,2016-02-10 06:56:00,
2016-02-10 08:01:00,52.0,45.3,29.58,SW,225,20.1,28.6,78,0.00,,,0.27,,2016-02-10 07:01:00,
2016-02-10 08:06:00,52.0,45.9,29.58,SW,225,20.5,28.6,80,0.00,,,0.27,,2016-02-10 07:06:00,
2016-02-10 08:11:00,52.2,46.8,29.58,SW,225,17.4,17.4,82,0.00,,,0.27,,2016-02-10 07:11:00,
2016-02-10 08:16:00,52.0,46.6,29.61,SW,225,14.7,14.7,82,0.00,,,0.27,,2016-02-10 07:16:00,
2016-02-10 08:21:00,52.0,46.9,29.61,West,270,17.4,21.4,83,0.00,,,0.27,,2016-02-10 07:21:00,
2016-02-10 08:26:00,51.8,46.8,29.58,South,180,17.0,26.8,83,0.00,,,0.27,,2016-02-10 07:26:00,
2016-02-10 08:31:00,51.8,46.8,29.58,West,270,19.2,19.2,83,0.00,,,0.27,,2016-02-10 07:31:00,
2016-02-10 08:36:00,51.8,46.4,29.58,West,270,17.4,22.3,82,0.00,,,0.27,,2016-02-10 07:36:00,
2016-02-10 08:41:00,51.8,44.8,29.58,SW,225,18.3,21.0,77,0.00,,,0.27,,2016-02-10 07:41:00,
2016-02-10 08:46:00,51.6,44.2,29.58,SW,225,20.5,21.0,76,0.00,,,0.27,,2016-02-10 07:46:00,
2016-02-10 08:51:00,51.6,44.6,29.58,SW,225,20.5,21.0,77,0.00,,,0.27,,2016-02-10 07:51:00,
2016-02-10 08:56:00,51.6,44.6,29.58,SW,225,21.0,24.6,77,0.00,,,0.27,,2016-02-10 07:56:00,
2016-02-10 09:01:00,51.4,45.1,29.58,West,270,17.4,32.6,79,0.00,,,0.27,,2016-02-10 08:01:00,
2016-02-10 09:06:00,51.3,45.1,29.58,SW,225,18.7,26.8,80,0.00,,,0.27,,2016-02-10 08:06:00,
2016-02-10 09:11:00,51.4,44.8,29.58,SW,225,21.4,26.8,78,0.00,,,0.27,,2016-02-10 08:11:00,
2016-02-10 09:16:00,51.6,45.0,29.58,WSW,247,21.4,37.1,78,0.00,,,0.27,,2016-02-10 08:16:00,
2016-02-10 09:21:00,51.6,45.5,29.58,West,270,22.8,37.1,80,0.00,,,0.27,,2016-02-10 08:21:00,
2016-02-10 09:26:00,51.6,45.1,29.55,West,270,20.5,37.1,79,0.00,,,0.27,,2016-02-10 08:26:00,
2016-02-10 09:31:00,51.8,44.8,29.55,West,270,18.7,20.1,77,0.00,,,0.27,,2016-02-10 08:31:00,
2016-02-10 09:41:00,51.4,44.1,29.55,North,0,18.7,21.9,76,0.00,,,0.27,,2016-02-10 08:41:00,
2016-02-10 09:46:00,51.4,44.1,29.55,North,0,17.0,21.9,76,0.00,,,0.27,,2016-02-10 08:46:00,
2016-02-10 09:51:00,51.4,43.7,29.55,SW,225,16.1,36.2,75,0.00,,,0.27,,2016-02-10 08:51:00,
2016-02-10 09:56:00,51.4,44.4,29.58,West,270,17.0,17.0,77,0.00,,,0.27,,2016-02-10 08:56:00,
2016-02-10 10:01:00,51.3,44.6,29.58,WSW,247,18.3,32.2,78,-99.99,,,0.27,,2016-02-10 09:01:00,
2016-02-10 10:06:00,51.3,44.6,29.58,WSW,247,17.0,25.0,78,-99.99,,,0.27,,2016-02-10 09:06:00,
2016-02-10 10:11:00,51.3,45.0,29.58,West,270,21.4,30.8,79,-99.99,,,0.27,,2016-02-10 09:11:00,
2016-02-10 10:16:00,51.3,44.2,29.58,South,180,21.0,29.5,77,-99.99,,,0.27,,2016-02-10 09:16:00,
2016-02-10 10:21:00,51.4,44.1,29.58,West,270,18.7,19.6,76,-99.99,,,0.27,,2016-02-10 09:21:00,
2016-02-10 10:26:00,51.3,43.5,29.61,West,270,17.4,29.5,75,-99.99,,,0.27,,2016-02-10 09:26:00,
2016-02-10 10:31:00,51.1,43.0,29.61,SW,225,19.2,20.1,74,-99.99,,,0.27,,2016-02-10 09:31:00,
2016-02-10 10:36:00,50.9,42.4,29.58,SSW,202,14.7,14.7,73,-99.99,,,0.27,,2016-02-10 09:36:00,
2016-02-10 10:41:00,51.1,42.6,29.61,SW,225,22.8,27.2,73,-99.99,,,0.27,,2016-02-10 09:41:00,
2016-02-10 10:46:00,51.1,42.6,29.61,SW,225,19.2,22.3,73,-99.99,,,0.27,,2016-02-10 09:46:00,
2016-02-10 10:51:00,51.4,42.6,29.61,SW,225,20.1,29.5,72,-99.99,,,0.27,,2016-02-10 09:51:00,
2016-02-10 10:56:00,51.6,42.8,29.58,SW,225,16.5,19.2,72,-99.99,,,0.27,,2016-02-10 09:56:00,
2016-02-10 11:01:00,51.6,42.8,29.58,WSW,247,16.5,23.2,72,-99.99,,,0.27,,2016-02-10 10:01:00,
2016-02-10 11:06:00,51.6,42.4,29.61,SSW,202,22.8,28.6,71,-99.99,,,0.27,,2016-02-10 10:06:00,
2016-02-10 11:11:00,51.6,42.8,29.61,SW,225,16.5,24.1,72,-99.99,,,0.27,,2016-02-10 10:11:00,
2016-02-10 11:16:00,51.4,42.6,29.58,SW,225,17.8,20.5,72,-99.99,,,0.27,,2016-02-10 10:16:00,
2016-02-10 11:21:00,51.4,42.3,29.58,South,180,14.3,18.7,71,-99.99,,,0.27,,2016-02-10 10:21:00,
2016-02-10 11:26:00,51.6,42.4,29.61,South,180,15.2,22.3,71,-99.99,,,0.27,,2016-02-10 10:26:00,
2016-02-10 11:31:00,51.6,42.1,29.61,SW,225,19.6,22.8,70,-99.99,,,0.27,,2016-02-10 10:31:00,
2016-02-10 11:36:00,51.8,42.6,29.61,WSW,247,14.7,16.5,71,-99.99,,,0.27,,2016-02-10 10:36:00,
2016-02-10 11:41:00,52.0,43.2,29.61,SW,225,10.7,13.4,72,-99.99,,,0.27,,2016-02-10 10:41:00,
2016-02-10 11:46:00,52.2,43.0,29.61,SSW,202,17.0,29.0,71,-99.99,,,0.27,,2016-02-10 10:46:00,
2016-02-10 11:51:00,52.2,42.6,29.61,SW,225,20.5,25.5,70,-99.99,,,0.27,,2016-02-10 10:51:00,
2016-02-10 11:56:00,51.8,42.6,29.61,West,270,17.4,26.3,71,-99.99,,,0.27,,2016-02-10 10:56:00,
2016-02-10 12:01:00,51.6,42.1,29.61,SW,225,19.2,27.7,70,-99.99,,,0.27,,2016-02-10 11:01:00,
2016-02-10 12:06:00,51.6,42.1,29.61,West,270,15.2,28.6,70,-99.99,,,0.27,,2016-02-10 11:06:00,
2016-02-10 12:11:00,51.6,42.1,29.58,West,270,15.2,15.2,70,-99.99,,,0.27,,2016-02-10 11:11:00,
2016-02-10 12:16:00,51.6,42.1,29.58,West,270,20.1,24.1,70,-99.99,,,0.27,,2016-02-10 11:16:00,
2016-02-10 12:21:00,51.6,42.4,29.58,West,270,20.1,20.1,71,-99.99,,,0.27,,2016-02-10 11:21:00,
2016-02-10 12:26:00,52.0,42.1,29.58,South,180,16.5,21.4,69,-99.99,,,0.27,,2016-02-10 11:26:00,
2016-02-10 12:31:00,51.8,41.5,29.58,South,180,20.1,21.4,68,-99.99,,,0.27,,2016-02-10 11:31:00,
2016-02-10 12:36:00,51.6,41.4,29.58,SW,225,16.5,21.0,68,-99.99,,,0.27,,2016-02-10 11:36:00,
2016-02-10 12:41:00,51.6,41.7,29.58,SW,225,17.0,21.0,69,-99.99,,,0.27,,2016-02-10 11:41:00,
2016-02-10 12:46:00,52.0,42.4,29.58,SW,225,17.0,21.0,70,-99.99,,,0.27,,2016-02-10 11:46:00,
2016-02-10 12:51:00,52.3,42.8,29.55,SW,225,17.0,21.0,70,-99.99,,,0.27,,2016-02-10 11:51:00,
2016-02-10 12:56:00,52.2,42.6,29.55,SW,225,21.4,21.4,70,-99.99,,,0.27,,2016-02-10 11:56:00,
2016-02-10 13:01:00,51.6,42.4,29.55,SW,225,12.9,21.0,71,-99.99,,,0.27,,2016-02-10 12:01:00,
2016-02-10 13:06:00,51.6,42.4,29.55,SW,225,12.9,21.0,71,-99.99,,,0.27,,2016-02-10 12:06:00,